| time (UTC) | temp F | wind direction | speed MPH | gust MPH | rain 1hr in | rain 24hr in | rain mn in | humidity % | barometer mb |
| 20260906133029 | 67 | 297 | 0.0 | 0.0 | 0.00 | 0.01 | 0.01 | 91 | 1013.9 |
| 20260906132524 | 67 | 296 | 0.0 | 0.0 | 0.00 | 0.01 | 0.01 | 92 | 1013.9 |
| 20260906132019 | 69 | 214 | 0.0 | 1.0 | 0.00 | 0.01 | 0.01 | 95 | 1013.9 |
| 20260906131514 | 69 | 237 | 0.0 | 0.0 | 0.00 | 0.01 | 0.01 | 96 | 1013.9 |
| 20260906131010 | 69 | 317 | 0.0 | 0.0 | 0.00 | 0.01 | 0.01 | 95 | 1013.9 |
| 20260906130509 | 69 | 286 | 0.0 | 0.0 | 0.00 | 0.01 | 0.01 | 95 | 1013.9 |
| 20260906130004 | 69 | 273 | 0.0 | 0.0 | 0.00 | 0.01 | 0.01 | 95 | 1013.5 |
| 20260906125501 | 69 | 267 | 0.0 | 0.0 | 0.00 | 0.01 | 0.01 | 96 | 1013.5 |
| 20260906125000 | 70 | 248 | 0.0 | 0.0 | 0.00 | 0.01 | 0.01 | 96 | 1013.5 |
| 20260906124456 | 70 | 266 | 0.0 | 0.0 | 0.00 | 0.01 | 0.01 | 95 | 1013.5 |
| 20260906123951 | 69 | 278 | 0.0 | 0.0 | 0.00 | 0.01 | 0.01 | 94 | 1013.5 |
| 20260906123451 | 69 | 270 | 0.0 | 0.0 | 0.00 | 0.01 | 0.01 | 94 | 1013.5 |
| 20260906122950 | 71 | 233 | 0.0 | 1.0 | 0.00 | 0.01 | 0.01 | 96 | 1013.5 |
| 20260906122445 | 71 | 294 | 0.0 | 0.0 | 0.00 | 0.01 | 0.01 | 96 | 1013.5 |
| 20260906121942 | 71 | 254 | 0.0 | 0.0 | 0.00 | 0.01 | 0.01 | 95 | 1013.2 |
| 20260906121438 | 71 | 335 | 0.0 | 0.0 | 0.00 | 0.01 | 0.01 | 95 | 1012.9 |
| 20260906120934 | 71 | 263 | 0.0 | 0.0 | 0.00 | 0.01 | 0.01 | 94 | 1013.2 |
| 20260906120429 | 72 | 347 | 0.0 | 0.0 | 0.00 | 0.01 | 0.01 | 93 | 1012.5 |
| 20260906115925 | 72 | 236 | 0.0 | 0.0 | 0.07 | 0.01 | 0.01 | 91 | 1012.9 |
| 20260906115421 | 73 | 168 | 0.0 | 0.0 | 0.07 | 0.01 | 0.01 | 89 | 1012.9 |
| 20260906114915 | 73 | 80 | 0.0 | 0.0 | 0.00 | 0.00 | 0.00 | 86 | 1012.9 |
| 20260906114409 | 73 | 79 | 0.0 | 0.0 | 0.00 | 0.00 | 0.00 | 84 | 1012.2 |
| 20260906113905 | 73 | 78 | 0.0 | 0.0 | 0.00 | 0.00 | 0.00 | 82 | 1012.5 |
| 20260906113404 | 72 | 54 | 0.0 | 0.0 | 0.00 | 0.00 | 0.00 | 80 | 1012.2 |
| 20260906112900 | 72 | 54 | 0.0 | 0.0 | 0.00 | 0.00 | 0.00 | 79 | 1012.2 |
| 20260906112355 | 72 | 54 | 0.0 | 0.0 | 0.00 | 0.00 | 0.00 | 77 | 1012.2 |
| 20260906111850 | 72 | 54 | 0.0 | 0.0 | 0.00 | 0.00 | 0.00 | 75 | 1012.5 |
| 20260906111349 | 71 | 54 | 0.0 | 0.0 | 0.00 | 0.00 | 0.00 | 74 | 1012.5 |
| 20260906110844 | 71 | 49 | 0.0 | 0.0 | 0.00 | 0.00 | 0.00 | 74 | 1012.2 |
| 20260906110340 | 72 | 49 | 0.0 | 0.0 | 0.00 | 0.00 | 0.00 | 74 | 1012.2 |
| 20260906105839 | 71 | 48 | 0.0 | 0.0 | 0.00 | 0.00 | 0.00 | 73 | 1012.5 |
| 20260906105335 | 71 | 48 | 0.0 | 0.0 | 0.00 | 0.00 | 0.00 | 73 | 1012.2 |
| 20260906104830 | 71 | 48 | 0.0 | 0.0 | 0.00 | 0.00 | 0.00 | 73 | 1012.5 |
| 20260906104329 | 71 | 48 | 0.0 | 0.0 | 0.00 | 0.00 | 0.00 | 71 | 1012.5 |
| 20260906103828 | 71 | 48 | 0.0 | 0.0 | 0.00 | 0.00 | 0.00 | 72 | 1012.5 |
| 20260906103326 | 71 | 48 | 0.0 | 0.0 | 0.00 | 0.00 | 0.00 | 73 | 1012.5 |
| 20260906102822 | 71 | 48 | 0.0 | 0.0 | 0.00 | 0.00 | 0.00 | 73 | 1012.5 |
| 20260906102321 | 71 | 50 | 0.0 | 0.0 | 0.00 | 0.00 | 0.00 | 72 | 1012.5 |
| 20260906101817 | 71 | 56 | 0.0 | 0.0 | 0.00 | 0.00 | 0.00 | 73 | 1012.2 |
| 20260906101312 | 71 | 51 | 0.0 | 0.0 | 0.00 | 0.00 | 0.00 | 73 | 1012.9 |
| 20260906100802 | 71 | 39 | 0.0 | 0.0 | 0.00 | 0.00 | 0.00 | 74 | 1012.5 |
| 20260906100301 | 71 | 28 | 0.0 | 0.0 | 0.00 | 0.00 | 0.00 | 74 | 1012.2 |
| 20260906095756 | 71 | 28 | 0.0 | 0.0 | 0.00 | 0.00 | 0.00 | 74 | 1012.5 |
| 20260906095251 | 71 | 28 | 0.0 | 0.0 | 0.00 | 0.00 | 0.00 | 74 | 1012.2 |
| 20260906094750 | 71 | 28 | 0.0 | 0.0 | 0.00 | 0.00 | 0.00 | 74 | 1012.5 |
| 20260906094245 | 71 | 23 | 0.0 | 0.0 | 0.00 | 0.00 | 0.00 | 73 | 1012.5 |
| 20260906093742 | 71 | 22 | 0.0 | 0.0 | 0.00 | 0.00 | 0.00 | 73 | 1012.5 |
| 20260906093237 | 70 | 42 | 0.0 | 0.0 | 0.00 | 0.00 | 0.00 | 72 | 1012.5 |
| 20260906092732 | 71 | 42 | 0.0 | 0.0 | 0.00 | 0.00 | 0.00 | 72 | 1012.9 |
| 20260906092226 | 70 | 42 | 0.0 | 0.0 | 0.00 | 0.00 | 0.00 | 72 | 1012.5 |
| 20260906091722 | 69 | 43 | 0.0 | 0.0 | 0.00 | 0.00 | 0.00 | 76 | 1012.5 |
| 20260906091218 | 69 | 43 | 0.0 | 0.0 | 0.00 | 0.00 | 0.00 | 82 | 1012.9 |
| 20260906090714 | 69 | 37 | 0.0 | 0.0 | 0.00 | 0.00 | 0.00 | 87 | 1012.9 |
| 20260906090213 | 71 | 35 | 0.0 | 0.0 | 0.00 | 0.00 | 0.00 | 89 | 1012.5 |
| 20260906085713 | 71 | 21 | 0.0 | 0.0 | 0.00 | 0.00 | 0.00 | 90 | 1012.5 |
| 20260906085212 | 71 | 327 | 0.0 | 0.0 | 0.00 | 0.00 | 0.00 | 90 | 1012.5 |
| 20260906084706 | 71 | 320 | 0.0 | 0.0 | 0.00 | 0.00 | 0.00 | 90 | 1012.5 |
| 20260906084201 | 71 | 301 | 0.0 | 0.0 | 0.00 | 0.00 | 0.00 | 89 | 1012.9 |
| 20260906083655 | 71 | 294 | 0.0 | 0.0 | 0.00 | 0.00 | 0.00 | 89 | 1012.9 |
| 20260906083151 | 71 | 295 | 0.0 | 0.0 | 0.00 | 0.00 | 0.00 | 89 | 1012.9 |
| 20260906082646 | 71 | 282 | 0.0 | 0.0 | 0.00 | 0.00 | 0.00 | 89 | 1012.9 |
| 20260906082142 | 71 | 222 | 0.0 | 0.0 | 0.00 | 0.00 | 0.00 | 89 | 1012.9 |
| 20260906081637 | 71 | 221 | 0.0 | 0.0 | 0.00 | 0.00 | 0.00 | 89 | 1012.9 |
| 20260906081132 | 71 | 221 | 0.0 | 0.0 | 0.00 | 0.00 | 0.00 | 88 | 1012.9 |
| 20260906080629 | 71 | 236 | 0.0 | 0.0 | 0.00 | 0.00 | 0.00 | 88 | 1012.9 |
| 20260906080125 | 71 | 246 | 0.0 | 0.0 | 0.00 | 0.00 | 0.00 | 88 | 1012.9 |
| 20260906075624 | 71 | 287 | 0.0 | 0.0 | 0.00 | 0.00 | 0.00 | 87 | 1012.9 |
| 20260906075119 | 71 | 4 | 0.0 | 0.0 | 0.00 | 0.00 | 0.00 | 87 | 1012.5 |
| 20260906074614 | 71 | 314 | 0.0 | 0.0 | 0.00 | 0.00 | 0.00 | 86 | 1012.9 |
| 20260906074107 | 71 | 286 | 0.0 | 0.0 | 0.00 | 0.00 | 0.00 | 86 | 1012.9 |
| 20260906073601 | 71 | 269 | 0.0 | 0.0 | 0.00 | 0.00 | 0.00 | 86 | 1012.9 |
| 20260906073052 | 71 | 260 | 0.0 | 0.0 | 0.00 | 0.00 | 0.00 | 86 | 1012.9 |
| 20260906072546 | 71 | 244 | 0.0 | 0.0 | 0.00 | 0.00 | 0.00 | 87 | 1012.9 |
| 20260906072043 | 71 | 225 | 0.0 | 0.0 | 0.00 | 0.00 | 0.00 | 87 | 1012.9 |
| 20260906071539 | 71 | 248 | 0.0 | 0.0 | 0.00 | 0.00 | 0.00 | 88 | 1012.9 |
| 20260906071034 | 71 | 232 | 0.0 | 0.0 | 0.00 | 0.00 | 0.00 | 89 | 1012.9 |
| 20260906070530 | 71 | 190 | 0.0 | 0.0 | 0.00 | 0.00 | 0.00 | 89 | 1012.9 |
| 20260906070026 | 71 | 238 | 0.0 | 0.0 | 0.00 | 0.00 | 0.00 | 90 | 1012.9 |
| 20260906065525 | 71 | 245 | 0.0 | 0.0 | 0.00 | 0.00 | 0.00 | 90 | 1012.5 |
| 20260906065021 | 71 | 246 | 0.0 | 0.0 | 0.00 | 0.00 | 0.00 | 90 | 1012.9 |
| 20260906064516 | 71 | 245 | 0.0 | 0.0 | 0.00 | 0.00 | 0.00 | 90 | 1012.5 |
| 20260906064011 | 71 | 271 | 0.0 | 0.0 | 0.00 | 0.00 | 0.00 | 90 | 1012.9 |
| 20260906063507 | 71 | 247 | 0.0 | 0.0 | 0.00 | 0.00 | 0.00 | 90 | 1012.9 |
| 20260906063003 | 71 | 237 | 0.0 | 0.0 | 0.00 | 0.00 | 0.00 | 90 | 1012.9 |
| 20260906062456 | 71 | 267 | 0.0 | 0.0 | 0.00 | 0.00 | 0.00 | 90 | 1012.9 |
| 20260906061952 | 71 | 240 | 0.0 | 0.0 | 0.00 | 0.00 | 0.00 | 90 | 1012.9 |
| 20260906061447 | 71 | 237 | 0.0 | 0.0 | 0.00 | 0.00 | 0.00 | 90 | 1012.9 |
| 20260906060942 | 71 | 245 | 0.0 | 0.0 | 0.00 | 0.00 | 0.00 | 90 | 1012.9 |
| 20260906060439 | 71 | 242 | 0.0 | 0.0 | 0.00 | 0.00 | 0.00 | 91 | 1012.9 |
| 20260906055935 | 71 | 242 | 0.0 | 0.0 | 0.00 | 0.00 | 0.00 | 90 | 1012.9 |
| 20260906055430 | 71 | 242 | 0.0 | 0.0 | 0.00 | 0.00 | 0.00 | 90 | 1012.9 |
| 20260906054926 | 71 | 240 | 0.0 | 0.0 | 0.00 | 0.00 | 0.00 | 90 | 1012.9 |
| 20260906054421 | 71 | 251 | 0.0 | 0.0 | 0.00 | 0.00 | 0.00 | 91 | 1012.9 |
| 20260906053917 | 71 | 209 | 0.0 | 0.0 | 0.00 | 0.00 | 0.00 | 91 | 1013.2 |
| 20260906053412 | 71 | 236 | 0.0 | 0.0 | 0.00 | 0.00 | 0.00 | 91 | 1013.2 |
| 20260906052908 | 71 | 234 | 0.0 | 0.0 | 0.00 | 0.00 | 0.00 | 91 | 1013.2 |
| 20260906052404 | 71 | 233 | 0.0 | 0.0 | 0.00 | 0.00 | 0.00 | 91 | 1013.2 |
| 20260906051900 | 71 | 273 | 0.0 | 0.0 | 0.00 | 0.00 | 0.00 | 91 | 1013.2 |
| 20260906051401 | 72 | 263 | 0.0 | 0.0 | 0.00 | 0.00 | 0.00 | 91 | 1013.5 |
| 20260906050856 | 72 | 244 | 0.0 | 0.0 | 0.00 | 0.00 | 0.00 | 91 | 1013.2 |
| 20260906050350 | 72 | 250 | 0.0 | 0.0 | 0.00 | 0.00 | 0.00 | 91 | 1013.2 |
| 20260906045849 | 72 | 205 | 0.0 | 0.0 | 0.00 | 0.00 | 0.00 | 91 | 1013.5 |
| 20260906045344 | 72 | 231 | 0.0 | 1.0 | 0.00 | 0.00 | 0.00 | 91 | 1013.5 |
| 20260906044840 | 72 | 176 | 0.0 | 0.0 | 0.00 | 0.00 | 0.00 | 91 | 1013.2 |
| 20260906044340 | 72 | 245 | 0.0 | 0.0 | 0.00 | 0.00 | 0.00 | 90 | 1013.2 |
| 20260906043836 | 72 | 227 | 0.0 | 0.0 | 0.00 | 0.00 | 0.00 | 90 | 1013.2 |
| 20260906043332 | 72 | 253 | 4.0 | 5.0 | 0.00 | 0.00 | 0.00 | 90 | 1013.2 |
| 20260906042827 | 72 | 230 | 0.0 | 0.0 | 0.00 | 0.00 | 0.00 | 89 | 1013.2 |
| 20260906042325 | 72 | 242 | 0.0 | 0.0 | 0.00 | 0.00 | 0.00 | 89 | 1013.2 |
| 20260906041821 | 72 | 240 | 0.0 | 0.0 | 0.00 | 0.00 | 0.00 | 89 | 1013.2 |
| 20260906041317 | 72 | 239 | 0.0 | 0.0 | 0.00 | 0.00 | 0.00 | 88 | 1012.9 |
| 20260906040811 | 72 | 238 | 4.0 | 6.0 | 0.00 | 0.00 | 0.00 | 88 | 1012.9 |
| 20260906040307 | 72 | 242 | 0.0 | 0.0 | 0.00 | 0.00 | 0.00 | 89 | 1013.2 |
| 20260906035802 | 72 | 234 | 0.0 | 0.0 | 0.00 | 0.00 | 0.00 | 89 | 1012.9 |
| 20260906035257 | 72 | 279 | 0.0 | 0.0 | 0.00 | 0.00 | 0.00 | 90 | 1013.2 |
| 20260906034757 | 72 | 243 | 0.0 | 0.0 | 0.00 | 0.00 | 0.00 | 91 | 1012.9 |
| 20260906034252 | 72 | 248 | 0.0 | 0.0 | 0.00 | 0.00 | 0.00 | 91 | 1012.9 |
| 20260906033748 | 72 | 264 | 0.0 | 0.0 | 0.00 | 0.00 | 0.00 | 91 | 1012.9 |
| 20260906033247 | 72 | 226 | 0.0 | 0.0 | 0.00 | 0.00 | 0.00 | 91 | 1012.9 |
| 20260906032744 | 72 | 262 | 0.0 | 0.0 | 0.00 | 0.00 | 0.00 | 91 | 1012.9 |
| 20260906032243 | 72 | 263 | 0.0 | 0.0 | 0.00 | 0.00 | 0.00 | 92 | 1012.9 |
| 20260906031739 | 72 | 215 | 0.0 | 0.0 | 0.00 | 0.00 | 0.00 | 91 | 1012.9 |
| 20260906031234 | 72 | 235 | 1.0 | 6.0 | 0.00 | 0.00 | 0.00 | 91 | 1012.5 |
| 20260906030729 | 72 | 235 | 0.0 | 0.0 | 0.00 | 0.00 | 0.00 | 91 | 1012.9 |
| 20260906030224 | 72 | 285 | 1.0 | 2.0 | 0.00 | 0.00 | 0.00 | 91 | 1012.5 |
| 20260906025723 | 72 | 242 | 4.0 | 6.0 | 0.00 | 0.00 | 0.00 | 91 | 1012.5 |
| 20260906025218 | 72 | 246 | 0.0 | 0.0 | 0.00 | 0.00 | 0.00 | 91 | 1012.5 |
| 20260906024717 | 72 | 240 | 4.0 | 7.0 | 0.00 | 0.00 | 0.00 | 91 | 1012.5 |
| 20260906024216 | 72 | 274 | 6.0 | 7.0 | 0.00 | 0.00 | 0.00 | 92 | 1012.5 |
| 20260906023712 | 72 | 244 | 0.0 | 0.0 | 0.00 | 0.00 | 0.00 | 93 | 1012.5 |
| 20260906023207 | 73 | 226 | 5.0 | 7.0 | 0.00 | 0.00 | 0.00 | 93 | 1012.5 |
| 20260906022702 | 73 | 218 | 0.0 | 0.0 | 0.00 | 0.00 | 0.00 | 93 | 1012.5 |
| 20260906022157 | 73 | 267 | 5.0 | 7.0 | 0.00 | 0.00 | 0.00 | 92 | 1012.5 |
| 20260906021653 | 73 | 238 | 0.0 | 0.0 | 0.00 | 0.00 | 0.00 | 92 | 1012.5 |
| 20260906021152 | 73 | 248 | 0.0 | 0.0 | 0.00 | 0.00 | 0.00 | 91 | 1012.5 |
| 20260906020647 | 74 | 274 | 7.0 | 9.0 | 0.00 | 0.00 | 0.00 | 90 | 1012.9 |
| 20260906020142 | 74 | 213 | 1.0 | 6.0 | 0.00 | 0.00 | 0.00 | 90 | 1012.9 |
| 20260906015636 | 74 | 229 | 0.0 | 0.0 | 0.00 | 0.00 | 0.00 | 89 | 1012.5 |
| 20260906015134 | 74 | 240 | 0.0 | 2.0 | 0.00 | 0.00 | 0.00 | 88 | 1012.5 |
| 20260906014629 | 74 | 254 | 0.0 | 0.0 | 0.00 | 0.00 | 0.00 | 87 | 1012.5 |
| 20260906014125 | 75 | 238 | 0.0 | 0.0 | 0.00 | 0.00 | 0.00 | 87 | 1012.5 |
| 20260906013620 | 74 | 226 | 2.0 | 3.0 | 0.00 | 0.00 | 0.00 | 88 | 1012.5 |
| 20260906013116 | 74 | 268 | 8.0 | 9.0 | 0.00 | 0.00 | 0.00 | 88 | 1012.5 |
| 20260906012611 | 74 | 298 | 0.0 | 3.0 | 0.00 | 0.00 | 0.00 | 88 | 1012.5 |
| 20260906012111 | 75 | 232 | 8.0 | 11.0 | 0.00 | 0.00 | 0.00 | 88 | 1012.5 |
| 20260906011607 | 75 | 264 | 10.0 | 11.0 | 0.00 | 0.00 | 0.00 | 87 | 1012.5 |
| 20260906011106 | 75 | 256 | 3.0 | 5.0 | 0.00 | 0.00 | 0.00 | 84 | 1012.5 |
| 20260906010556 | 76 | 256 | 8.0 | 10.0 | 0.00 | 0.00 | 0.00 | 83 | 1012.5 |
| 20260906010053 | 77 | 243 | 10.0 | 11.0 | 0.00 | 0.00 | 0.00 | 83 | 1012.2 |
| 20260906005551 | 77 | 269 | 9.0 | 10.0 | 0.00 | 0.00 | 0.00 | 81 | 1012.5 |
| 20260906005050 | 77 | 267 | 6.0 | 7.0 | 0.00 | 0.00 | 0.00 | 82 | 1012.5 |
| 20260906004550 | 75 | 215 | 5.0 | 7.0 | 0.00 | 0.00 | 0.00 | 83 | 1012.5 |
| 20260906004045 | 75 | 243 | 9.0 | 13.0 | 0.00 | 0.00 | 0.00 | 85 | 1012.5 |
| 20260906003540 | 75 | 253 | 11.0 | 13.0 | 0.00 | 0.00 | 0.00 | 85 | 1012.2 |
| 20260906003036 | 76 | 244 | 11.0 | 13.0 | 0.00 | 0.00 | 0.00 | 83 | 1012.5 |
| 20260906002531 | 76 | 257 | 6.0 | 8.0 | 0.00 | 0.00 | 0.00 | 82 | 1012.2 |
| 20260906002026 | 76 | 250 | 5.0 | 6.0 | 0.00 | 0.00 | 0.00 | 82 | 1012.5 |
| 20260906001521 | 76 | 187 | 7.0 | 10.0 | 0.00 | 0.00 | 0.00 | 81 | 1012.5 |
| 20260906001021 | 76 | 227 | 9.0 | 11.0 | 0.00 | 0.00 | 0.00 | 81 | 1012.2 |
| 20260906000517 | 76 | 160 | 7.0 | 10.0 | 0.00 | 0.00 | 0.00 | 81 | 1012.2 |
| 20260906000012 | 76 | 266 | 12.0 | 14.0 | 0.00 | 0.00 | 0.00 | 80 | 1012.5 |
| 20260905235511 | 76 | 253 | 6.0 | 8.0 | 0.00 | 0.00 | 0.00 | 79 | 1012.2 |
| 20260905235007 | 77 | 265 | 12.0 | 15.0 | 0.00 | 0.00 | 0.00 | 79 | 1012.5 |
| 20260905234503 | 77 | 230 | 7.0 | 10.0 | 0.00 | 0.00 | 0.00 | 78 | 1012.2 |
| 20260905233956 | 77 | 242 | 7.0 | 9.0 | 0.00 | 0.00 | 0.00 | 77 | 1012.5 |
| 20260905233452 | 77 | 197 | 9.0 | 11.0 | 0.00 | 0.00 | 0.00 | 77 | 1012.5 |
| 20260905232950 | 78 | 219 | 8.0 | 10.0 | 0.00 | 0.00 | 0.00 | 77 | 1012.2 |
| 20260905232447 | 78 | 225 | 7.0 | 8.0 | 0.00 | 0.00 | 0.00 | 76 | 1012.2 |
| 20260905231942 | 78 | 243 | 7.0 | 13.0 | 0.00 | 0.00 | 0.00 | 76 | 1012.2 |
| 20260905231438 | 79 | 245 | 8.0 | 10.0 | 0.00 | 0.00 | 0.00 | 75 | 1012.5 |
| 20260905230934 | 79 | 228 | 6.0 | 8.0 | 0.00 | 0.00 | 0.00 | 74 | 1012.5 |
| 20260905230433 | 80 | 224 | 6.0 | 8.0 | 0.00 | 0.00 | 0.00 | 72 | 1012.2 |
| 20260905225931 | 80 | 226 | 3.0 | 5.0 | 0.00 | 0.00 | 0.00 | 72 | 1012.5 |
| 20260905225426 | 80 | 248 | 4.0 | 6.0 | 0.00 | 0.00 | 0.00 | 70 | 1012.9 |
| 20260905224921 | 81 | 250 | 9.0 | 10.0 | 0.00 | 0.00 | 0.00 | 69 | 1012.5 |
| 20260905224416 | 80 | 273 | 0.0 | 0.0 | 0.00 | 0.00 | 0.00 | 70 | 1012.5 |
| 20260905223910 | 80 | 271 | 10.0 | 11.0 | 0.00 | 0.00 | 0.00 | 69 | 1012.9 |
| 20260905223409 | 80 | 262 | 6.0 | 8.0 | 0.00 | 0.00 | 0.00 | 70 | 1012.9 |
| 20260905222909 | 81 | 245 | 2.0 | 11.0 | 0.00 | 0.00 | 0.00 | 70 | 1012.9 |
| 20260905222408 | 80 | 275 | 6.0 | 7.0 | 0.00 | 0.00 | 0.00 | 70 | 1012.9 |
| 20260905221904 | 80 | 264 | 9.0 | 10.0 | 0.00 | 0.00 | 0.00 | 70 | 1012.9 |
| 20260905221401 | 80 | 215 | 7.0 | 8.0 | 0.00 | 0.00 | 0.00 | 72 | 1012.9 |
| 20260905220856 | 81 | 235 | 4.0 | 8.0 | 0.00 | 0.00 | 0.00 | 70 | 1012.9 |
| 20260905220352 | 82 | 229 | 7.0 | 8.0 | 0.00 | 0.00 | 0.00 | 70 | 1012.9 |
| 20260905215851 | 79 | 185 | 6.0 | 8.0 | 0.00 | 0.00 | 0.00 | 73 | 1013.2 |
| 20260905215347 | 80 | 248 | 7.0 | 8.0 | 0.00 | 0.00 | 0.00 | 72 | 1012.9 |
| 20260905214843 | 80 | 251 | 9.0 | 10.0 | 0.00 | 0.00 | 0.00 | 71 | 1013.2 |
| 20260905214338 | 81 | 242 | 7.0 | 9.0 | 0.00 | 0.00 | 0.00 | 70 | 1013.2 |
| 20260905213833 | 82 | 219 | 5.0 | 8.0 | 0.00 | 0.00 | 0.00 | 71 | 1013.2 |
| 20260905213324 | 80 | 255 | 5.0 | 9.0 | 0.00 | 0.00 | 0.00 | 71 | 1013.5 |
| 20260905212819 | 80 | 232 | 1.0 | 1.0 | 0.00 | 0.00 | 0.00 | 70 | 1013.2 |
| 20260905212318 | 80 | 254 | 7.0 | 9.0 | 0.00 | 0.00 | 0.00 | 71 | 1013.2 |
| 20260905211813 | 80 | 273 | 9.0 | 10.0 | 0.00 | 0.00 | 0.00 | 72 | 1013.5 |
| 20260905211308 | 79 | 279 | 7.0 | 11.0 | 0.00 | 0.00 | 0.00 | 73 | 1013.2 |
| 20260905210804 | 80 | 257 | 5.0 | 7.0 | 0.00 | 0.00 | 0.00 | 72 | 1013.2 |
| 20260905210304 | 81 | 212 | 7.0 | 9.0 | 0.00 | 0.00 | 0.00 | 72 | 1013.5 |
| 20260905205803 | 81 | 219 | 6.0 | 8.0 | 0.00 | 0.00 | 0.00 | 73 | 1013.5 |
| 20260905205258 | 82 | 246 | 7.0 | 10.0 | 0.00 | 0.00 | 0.00 | 70 | 1013.5 |
| 20260905204757 | 81 | 266 | 9.0 | 10.0 | 0.00 | 0.00 | 0.00 | 72 | 1013.5 |
| 20260905204254 | 81 | 154 | 4.0 | 6.0 | 0.00 | 0.00 | 0.00 | 72 | 1013.5 |
| 20260905203752 | 80 | 228 | 1.0 | 3.0 | 0.00 | 0.00 | 0.00 | 73 | 1013.9 |
| 20260905203248 | 80 | 271 | 0.0 | 1.0 | 0.00 | 0.00 | 0.00 | 73 | 1013.9 |
| 20260905202743 | 80 | 220 | 7.0 | 8.0 | 0.00 | 0.00 | 0.00 | 74 | 1013.5 |
| 20260905202238 | 80 | 247 | 5.0 | 7.0 | 0.00 | 0.00 | 0.00 | 74 | 1013.9 |
| 20260905201734 | 79 | 227 | 6.0 | 8.0 | 0.00 | 0.00 | 0.00 | 74 | 1013.9 |
| 20260905201228 | 79 | 293 | 5.0 | 7.0 | 0.00 | 0.00 | 0.00 | 74 | 1013.9 |
| 20260905200723 | 79 | 239 | 8.0 | 10.0 | 0.00 | 0.00 | 0.00 | 75 | 1013.9 |
| 20260905200219 | 80 | 216 | 5.0 | 6.0 | 0.00 | 0.00 | 0.00 | 73 | 1013.9 |
| 20260905195717 | 80 | 231 | 6.0 | 7.0 | 0.00 | 0.00 | 0.00 | 73 | 1014.2 |
| 20260905195212 | 79 | 269 | 7.0 | 8.0 | 0.00 | 0.00 | 0.00 | 73 | 1014.2 |
| 20260905194708 | 80 | 231 | 6.0 | 7.0 | 0.00 | 0.00 | 0.00 | 73 | 1014.2 |
| 20260905194208 | 79 | 230 | 6.0 | 7.0 | 0.00 | 0.00 | 0.00 | 74 | 1014.2 |
| 20260905193702 | 79 | 286 | 7.0 | 9.0 | 0.00 | 0.00 | 0.00 | 74 | 1014.2 |
| 20260905193157 | 79 | 242 | 6.0 | 7.0 | 0.00 | 0.00 | 0.00 | 76 | 1014.6 |
| 20260905192653 | 80 | 244 | 3.0 | 6.0 | 0.00 | 0.00 | 0.00 | 74 | 1014.6 |
| 20260905192149 | 79 | 232 | 4.0 | 5.0 | 0.00 | 0.00 | 0.00 | 73 | 1014.6 |
| 20260905191648 | 79 | 273 | 6.0 | 8.0 | 0.00 | 0.00 | 0.00 | 73 | 1014.6 |
| 20260905191146 | 79 | 261 | 8.0 | 8.0 | 0.00 | 0.00 | 0.00 | 73 | 1014.6 |
| 20260905190644 | 79 | 239 | 0.0 | 0.0 | 0.00 | 0.00 | 0.00 | 73 | 1014.6 |
| 20260905190143 | 80 | 250 | 7.0 | 8.0 | 0.00 | 0.00 | 0.00 | 72 | 1014.6 |
| 20260905185638 | 80 | 230 | 6.0 | 6.0 | 0.00 | 0.00 | 0.00 | 70 | 1014.6 |
| 20260905185138 | 79 | 144 | 2.0 | 2.0 | 0.00 | 0.00 | 0.00 | 73 | 1014.6 |
| 20260905184632 | 80 | 279 | 3.0 | 5.0 | 0.00 | 0.00 | 0.00 | 70 | 1014.6 |
| 20260905184131 | 80 | 214 | 3.0 | 3.0 | 0.00 | 0.00 | 0.00 | 71 | 1014.9 |
| 20260905183631 | 80 | 245 | 4.0 | 6.0 | 0.00 | 0.00 | 0.00 | 71 | 1014.9 |
| 20260905183126 | 79 | 282 | 6.0 | 7.0 | 0.00 | 0.00 | 0.00 | 71 | 1014.9 |
| 20260905182625 | 80 | 235 | 5.0 | 6.0 | 0.00 | 0.00 | 0.00 | 71 | 1014.9 |
| 20260905182125 | 78 | 242 | 5.0 | 6.0 | 0.00 | 0.00 | 0.00 | 72 | 1014.9 |
| 20260905181620 | 79 | 272 | 0.0 | 0.0 | 0.00 | 0.00 | 0.00 | 71 | 1014.9 |
| 20260905181119 | 80 | 260 | 0.0 | 0.0 | 0.00 | 0.00 | 0.00 | 70 | 1014.9 |
| 20260905180614 | 80 | 185 | 0.0 | 0.0 | 0.00 | 0.00 | 0.00 | 68 | 1014.9 |
| 20260905180110 | 81 | 42 | 0.0 | 0.0 | 0.00 | 0.00 | 0.00 | 60 | 1014.9 |
| 20260905175609 | 82 | 123 | 0.0 | 0.0 | 0.00 | 0.00 | 0.00 | 60 | 1014.9 |
| 20260905175104 | 82 | 26 | 0.0 | 0.0 | 0.00 | 0.00 | 0.00 | 60 | 1014.9 |
| 20260905174600 | 81 | 58 | 0.0 | 0.0 | 0.00 | 0.00 | 0.00 | 62 | 1014.9 |
| 20260905174054 | 79 | 152 | 0.0 | 0.0 | 0.00 | 0.00 | 0.00 | 66 | 1014.9 |
| 20260905173551 | 80 | 118 | 0.0 | 0.0 | 0.00 | 0.00 | 0.00 | 64 | 1014.9 |
| 20260905173046 | 81 | 146 | 0.0 | 0.0 | 0.00 | 0.00 | 0.00 | 63 | 1014.9 |
| 20260905172545 | 79 | 43 | 0.0 | 0.0 | 0.00 | 0.00 | 0.00 | 66 | 1014.9 |
| 20260905172040 | 78 | 4 | 0.0 | 0.0 | 0.00 | 0.00 | 0.00 | 68 | 1014.6 |
| 20260905171537 | 79 | 81 | 0.0 | 0.0 | 0.00 | 0.00 | 0.00 | 70 | 1014.9 |
| 20260905171032 | 78 | 48 | 0.0 | 0.0 | 0.00 | 0.00 | 0.00 | 69 | 1014.6 |
| 20260905170529 | 77 | 88 | 0.0 | 0.0 | 0.00 | 0.00 | 0.00 | 71 | 1014.9 |
| 20260905170024 | 77 | 88 | 0.0 | 0.0 | 0.00 | 0.00 | 0.00 | 72 | 1014.9 |
| 20260905165518 | 77 | 121 | 0.0 | 0.0 | 0.00 | 0.00 | 0.00 | 73 | 1014.9 |
| 20260905165014 | 77 | 49 | 0.0 | 0.0 | 0.00 | 0.00 | 0.00 | 73 | 1014.9 |
| 20260905164508 | 77 | 51 | 0.0 | 0.0 | 0.00 | 0.00 | 0.00 | 72 | 1014.9 |
| 20260905164003 | 77 | 57 | 0.0 | 0.0 | 0.00 | 0.00 | 0.00 | 76 | 1014.9 |
| 20260905163459 | 75 | 147 | 0.0 | 0.0 | 0.00 | 0.00 | 0.00 | 79 | 1014.9 |
| 20260905162955 | 75 | 301 | 0.0 | 0.0 | 0.00 | 0.00 | 0.00 | 79 | 1014.9 |
| 20260905162450 | 75 | 46 | 0.0 | 0.0 | 0.00 | 0.00 | 0.00 | 79 | 1014.9 |
| 20260905161944 | 74 | 31 | 0.0 | 0.0 | 0.00 | 0.00 | 0.00 | 81 | 1014.6 |
| 20260905161443 | 74 | 87 | 0.0 | 0.0 | 0.00 | 0.00 | 0.00 | 82 | 1014.9 |
| 20260905160941 | 73 | 37 | 0.0 | 0.0 | 0.00 | 0.00 | 0.00 | 83 | 1014.9 |
| 20260905160436 | 73 | 114 | 0.0 | 0.0 | 0.00 | 0.00 | 0.00 | 84 | 1014.6 |
| 20260905155935 | 72 | 63 | 0.0 | 0.0 | 0.00 | 0.00 | 0.00 | 86 | 1014.6 |
| 20260905155430 | 72 | 80 | 0.0 | 0.0 | 0.00 | 0.00 | 0.00 | 86 | 1014.6 |
| 20260905154929 | 72 | 359 | 0.0 | 0.0 | 0.00 | 0.00 | 0.00 | 85 | 1014.9 |
| 20260905154425 | 72 | 49 | 0.0 | 0.0 | 0.00 | 0.00 | 0.00 | 87 | 1014.9 |
| 20260905153920 | 71 | 46 | 0.0 | 0.0 | 0.00 | 0.00 | 0.00 | 90 | 1014.6 |
| 20260905153417 | 70 | 36 | 0.0 | 0.0 | 0.00 | 0.00 | 0.00 | 91 | 1014.9 |
| 20260905152916 | 70 | 35 | 0.0 | 0.0 | 0.00 | 0.00 | 0.00 | 91 | 1014.6 |
| 20260905152415 | 69 | 16 | 0.0 | 0.0 | 0.00 | 0.00 | 0.00 | 92 | 1014.6 |
| 20260905151910 | 69 | 9 | 0.0 | 0.0 | 0.00 | 0.00 | 0.00 | 92 | 1014.6 |
| 20260905151406 | 69 | 0 | 0.0 | 0.0 | 0.00 | 0.00 | 0.00 | 92 | 1014.6 |
| 20260905150901 | 69 | 14 | 0.0 | 0.0 | 0.00 | 0.00 | 0.00 | 92 | 1014.6 |
| 20260905150400 | 68 | 21 | 0.0 | 0.0 | 0.00 | 0.00 | 0.00 | 93 | 1014.6 |
| 20260905145858 | 67 | 10 | 0.0 | 0.0 | 0.00 | 0.00 | 0.00 | 94 | 1014.6 |
| 20260905145352 | 67 | 19 | 0.0 | 0.0 | 0.00 | 0.00 | 0.00 | 95 | 1014.2 |
| 20260905144852 | 66 | 347 | 0.0 | 0.0 | 0.00 | 0.00 | 0.00 | 97 | 1014.2 |
| 20260905144347 | 66 | 71 | 0.0 | 0.0 | 0.00 | 0.00 | 0.00 | 98 | 1014.6 |
| 20260905143845 | 66 | 74 | 0.0 | 0.0 | 0.00 | 0.00 | 0.00 | 98 | 1014.2 |
| 20260905143340 | 66 | 80 | 0.0 | 0.0 | 0.00 | 0.00 | 0.00 | 98 | 1014.2 |
| 20260905142839 | 66 | 80 | 0.0 | 0.0 | 0.00 | 0.00 | 0.00 | 99 | 1014.2 |
| 20260905142332 | 65 | 81 | 0.0 | 0.0 | 0.00 | 0.00 | 0.00 | 99 | 1014.2 |
| 20260905141829 | 64 | 83 | 0.0 | 0.0 | 0.00 | 0.00 | 0.00 | 99 | 1014.2 |
| 20260905141324 | 64 | 83 | 0.0 | 0.0 | 0.00 | 0.00 | 0.00 | 99 | 1014.2 |
| 20260905140820 | 63 | 84 | 0.0 | 0.0 | 0.00 | 0.00 | 0.00 | 99 | 1013.9 |
| 20260905140319 | 63 | 83 | 0.0 | 0.0 | 0.00 | 0.00 | 0.00 | 99 | 1013.9 |
| 20260905135818 | 62 | 83 | 0.0 | 0.0 | 0.00 | 0.00 | 0.00 | 99 | 1013.9 |
| 20260905135314 | 62 | 83 | 0.0 | 0.0 | 0.00 | 0.00 | 0.00 | 99 | 1013.9 |
| 20260905134810 | 62 | 83 | 0.0 | 0.0 | 0.00 | 0.00 | 0.00 | 99 | 1013.5 |
| 20260905134308 | 62 | 83 | 0.0 | 0.0 | 0.00 | 0.00 | 0.00 | 99 | 1013.5 |
| 20260905133803 | 62 | 83 | 0.0 | 0.0 | 0.00 | 0.00 | 0.00 | 99 | 1013.5 |